Orbital Elements at Epoch 2459200.5 (2020-Dec-17.0) TDB
Reference: JPL 25 (heliocentric ecliptic J2000)
Element | Value | Uncertainty (1-sigma) | Units |
e | .2580367364607224 | 4.8607e-08 | |
a | 2.359233161597172 | 9.3881e-09 | au |
q | 1.750464336028726 | 1.163e-07 | au |
i | 3.709908952624011 | 4.1649e-06 | deg |
node | 110.6955001026947 | 8.4367e-05 | deg |
peri | 249.5104879840445 | 8.4622e-05 | deg |
M | 359.4206839835653 | 9.4673e-06 | deg |
tp | 2459202.629941904152 (2020-Dec-19.12994190) | 3.4816e-05 | TDB |
period | 1323.593796376763 3.62 | 7.9005e-06 2.163e-08 | d yr |
n | .2719867688904802 | 1.6235e-09 | deg/d |
Q | 2.968001987165619 | 1.1811e-08 | au |
|
| | Orbit Determination Parameters
Additional Information
|